Regional Weather Roundup
Issued by NWS

Home | Current Version | Previous Version | Text Only | Print | Product List | Glossary Off
Versions: 1 2 3 4 5 6 7 8 9 10 11 12 13 14 15 16 17 18 19 20 21 22 23 24 25 26 27

000
ASUS45 KTFX 250710
RWRMT
MONTANA REGIONAL WEATHER ROUNDUP
NATIONAL WEATHER SERVICE GREAT FALLS MT
100 AM MDT FRI MAY 25 2018

NOTE: "FAIR" INDICATES FEW OR NO CLOUDS BELOW 12000 FEET WITH NO
SIGNIFICANT WEATHER AND/OR OBSTRUCTIONS TO VISIBILITY.

MTZ001>007-043-250800-
WEST OF THE DIVIDE

CITY           SKY/WX    TMP DP  RH WIND       PRES   REMARKS
KALISPELL      FAIR      51  50  96 SW5       29.97S
MISSOULA       FAIR      56  48  74 N3        30.01R
BUTTE          FAIR      49  43  80 S6        30.13R
MULLAN PASS    FAIR      53  48  83 CALM      30.12S
ANACONDA         N/A     54  43  66 SW8       30.10R
DEER LODGE       N/A     48  45  87 CALM      30.10R
HAMILTON         N/A     57  48  72 MISG      30.05R
PLAINS           N/A     54  49  83 CALM      29.99S
RONAN            N/A     52  50  93 CALM      30.00S
$$

MTZ008-052>055-250800-
SOUTHWEST MONTANA

CITY           SKY/WX    TMP DP  RH WIND       PRES   REMARKS
BOZEMAN        FAIR      55  47  74 S5        30.06S
DILLON         FAIR      51  46  83 S13       30.10F
ENNIS          CLEAR     52  46  82 S13       30.15S
W YELLOWSTONE  FAIR      43  43 100 CALM      30.20R
TWIN BRIDGES     N/A     55  43  64 E3        30.08R
$$

MTZ009-010-012-014-046-048-049-054-250800-
EAST SLOPES AND CENTRAL MONTANA

CITY           SKY/WX    TMP DP  RH WIND       PRES   REMARKS
CUT BANK       FAIR      55  45  68 W10       29.91R
GREAT FALLS    FAIR      54  44  69 SW9       29.95S
MALMSTROM AFB  FAIR      55  46  71 SW9       29.94S
HELENA         FAIR      58  47  66 E6        30.00S
CHOTEAU          N/A     57  45  62 W6        29.96R
WHITE SULPHUR    N/A     54  45  71 CALM      30.04S
$$

MTZ011-013-016-021-045-047-050-051-250800-
NORTH CENTRAL MONTANA

CITY           SKY/WX    TMP DP  RH WIND       PRES   REMARKS
HAVRE          FAIR      64  48  56 SW16      29.83R
LEWISTOWN      FAIR      53  46  77 SW13      29.97S
N BAR RANCH    FAIR      54  46  76 SW10      30.00S
CHINOOK          N/A     68  48  49 MISG      29.81
$$

MTZ017>020-022>027-061-062-250800-
NORTHEAST MONTANA

CITY           SKY/WX    TMP DP  RH WIND       PRES   REMARKS
GLASGOW        FAIR      67  52  58 W10       29.76S
GLENDIVE       FAIR      59  55  87 CALM      29.83S
JORDAN           N/A     58  54  86 NW6       29.84S
MALTA          CLEAR     61  50  67 W8        29.77R
SIDNEY         FAIR      58  56  93 S9        29.77F
WOLF POINT     FAIR      58  54  86 SW5       29.76F
PLENTYWOOD       N/A     61  54  77 CALM      29.74S
POPLAR           N/A     63  55  77 SW5       29.76S
SCOBEY           N/A     63  45  51 SW1       29.74F
$$

MTZ028>42-056>058-250800-
SOUTHCENTRAL AND SOUTHEAST MONTANA

CITY           SKY/WX    TMP DP  RH WIND       PRES   REMARKS
BAKER          FAIR      60  55  83 W5        29.88S
BILLINGS       FAIR      62  51  67 SW12      29.96S
LIVINGSTON     FAIR      61  47  59 SW16      30.04R
MILES CITY     FAIR      62  56  80 W6        29.86S
BIG TIMBER     CLEAR     59  46  63 W14       30.04S
FORSYTH          N/A     63  55  77 SW3       29.88R
LAUREL           N/A     57  50  77 SW9       29.98R
$$

REGIONAL REPORTS...DAKOTAS

CITY           SKY/WX    TMP DP  RH WIND       PRES   REMARKS
WILLISTON      FAIR      62  54  74 SW8       29.74F
MINOT          FAIR      66  55  67 SW8       29.70F
DICKINSON      FAIR      59  52  77 W6        29.81S
BEACH          FAIR      59  57  94 SW9       29.87S
CROSBY         FAIR      61  57  88 SW10      29.72S
TIOGA          FAIR      59  59 100 W8        29.76S
WATFORD CITY   FAIR      57  55  94 W5        29.76S
BISMARCK       FAIR      62  55  77 W5        29.78F
GRAND FORKS    FAIR      65  56  72 W8        29.67F
FARGO          FAIR      68  56  65 SW9       29.71S
BUFFALO SD       N/A     62  50  64 W9        29.83F
RAPID CITY     FAIR      58  53  84 W5        29.93F
$$

REGIONAL REPORTS...WYOMING/IDAHO/WASHINGTON

CITY           SKY/WX    TMP DP  RH WIND       PRES   REMARKS
GILLETTE       FAIR      51  48  89 S7        29.99F
SHERIDAN       MOCLDY    58  50  75 CALM      29.99R
BUFFALO WY     FAIR      57  46  66 SW6       30.04S
CODY           FAIR      58  43  57 W3        30.09F
IDAHO FALLS    FAIR      50  47  89 CALM      30.10S
SALMON         FAIR      51  49  92 CALM      30.10S
BOISE          FAIR      72  47  40 SE7       29.93S
SPOKANE        FAIR      64  55  72 SE10      29.94S
$$

REGIONAL REPORTS...ALBERTA

CITY           SKY/WX    TMP DP  RH WIND       PRES   REMARKS
CALGARY        PTCLDY    55  43  62 N2        29.87S
CARDSTON         N/A     63  43  48 W12G20      N/A
EDMONTON       CLEAR     57  54  88 W7        29.75R
FORT MCMURRAY  CLOUDY    64  54  68 S7        29.63R
HIGH LEVEL     MOCLDY    61  55  82 CALM      29.64S
LETHBRIDGE     PTCLDY    64  43  45 W18G25    29.85R
LLOYDMINSTER   CLOUDY    59  55  88 NW8       29.67S
MEDICINE HAT   PTCLDY    63  48  59 N7        29.77R
ONEFOUR          N/A     64  46  52 W20         N/A
PEACE RIVER    PTCLDY    59  46  63 W6        29.72S
PINCHER CREEK    N/A     61  43  51 W24G30    29.92S
WATERTON GATE    N/A     61  41  48 SW15G24     N/A
$$

REGIONAL REPORTS...SASKATCHEWAN

CITY           SKY/WX    TMP DP  RH WIND       PRES   REMARKS
CORONACH         N/A     57  54  88 E5          N/A
CYPRESS HILLS    N/A     63  39  42 NW9         N/A
ESTEVAN        PTCLDY    55  54  94 SW8       29.70S
MOOSE JAW        N/A     61  52  72 S13         N/A
PRINCE ALBERT  MOCLDY    63  59  88 E2        29.62S
REGINA         PTCLDY    57  55  94 SE7       29.68S
ROCKGLEN         N/A     61  50  67 SW16        N/A
SASKATOON      MOCLDY    59  55  88 SW3       29.62F
SWIFT CURRENT  CLEAR     61  48  63 W13       29.68R
VAL MARIE        N/A     64  45  48 W16         N/A
$$




USA.gov is the U.S. government's official web portal to all federal, state and local government web resources and services.